Regional Weather Roundup
Issued by NWS

Home | Current Version | Previous Version | Graphics & Text | Print | Product List | Glossary On
Versions: 1 2 3 4 5 6 7 8 9 10 11 12 13 14 15 16 17 18 19 20 21 22 23 24 25 26 27 28 29 30 31 32 33 34 35 36 37 38 39 40 41 42 43 44 45 46 47 48 49 50
000
ASUS43 KBIS 302010
RWRND

NORTH DAKOTA REGIONAL WEATHER ROUNDUP
NATIONAL WEATHER SERVICE BISMARCK ND
300 PM CDT TUE SEP 30 2014

NOTE: "FAIR" INDICATES FEW OR NO CLOUDS BELOW 12,000 FEET WITH NO
SIGNIFICANT WEATHER AND/OR OBSTRUCTIONS TO VISIBILITY.


NDZ001>003-009>011-017-302100-
NORTHWEST NORTH DAKOTA

CITY           SKY/WX    TMP DP  RH WIND       PRES   REMARKS
WILLISTON      CLOUDY    55  52  89 E9        29.57F
MINOT          LGT RAIN  50  47  89 E12       29.61F
MINOT AFB      DRIZZLE   49  49 100 E15       29.61F
$$

NDZ018>021-031>035-040>046-302100-
SOUTHWEST NORTH DAKOTA

CITY           SKY/WX    TMP DP  RH WIND       PRES   REMARKS
BISMARCK       CLOUDY    54  53  97 E18       29.55F FOG
DICKINSON      CLOUDY    53  51  93 E14       29.50F
GARRISON         N/A     51  50  96 E13       29.58F
HETTINGER ARPT CLOUDY    53  51  93 NE15      29.47F FOG
$$

NDZ004>008-012>016-024-026-027-054-302100-
NORTHEAST NORTH DAKOTA

CITY           SKY/WX    TMP DP  RH WIND       PRES   REMARKS
GRAND FORKS    CLOUDY    61  45  55 SE18G24   29.76F
GRND FRKS AFB  CLOUDY    60  47  61 SE16      29.75F
DEVILS LAKE    PTSUNNY   54  43  66 SE16G23   29.68F
$$

NDZ022-023-025-028>030-036>039-047>053-302100-
SOUTHEAST NORTH DAKOTA

CITY           SKY/WX    TMP DP  RH WIND       PRES   REMARKS
FARGO          PTSUNNY   61  44  53 SE16G35   29.74F
JAMESTOWN      CLOUDY    51  47  86 E15G30    29.65F
$$



USA.gov is the U.S. government's official web portal to all federal, state and local government web resources and services.